www.pogodaiklimat.ru

Погода и климат >> Архив погоды >> Германия >> Вюрцбург


ПОГОДА в Вюрцбурге

  • Прогноз погоды в Вюрцбурге
  • Монитор погоды в Вюрцбурге

АРХИВ ПОГОДЫ в Вюрцбурге

Время (UTC), дата Ветер
(напр.,м/с)
 
Видим.   Явления Облачность Т
(С)
Тd
(С)
f
(%)
Тe
(С)
Тes
(С)
Комфортность P
(гПа)
Po
(гПа)
Тmin
(С)
Tmax
(С)
R
(мм)
R24
(мм)
S
(см)
10 12.06 З 9-12
{12}
30 км 10/10 360 м
[]
+17.4 +14.7 84 +16 +16 1008.9 977.5
11 12.06 СЗ 7 30 км слаб. дождь {морось} 9/9 330 м
[]
+14.3 +11.9 85 +12 +13 1011.3 979.4
12 12.06 СЗ 2 24 км слаб. морось с дождем 10/0 2000 м
[]
+13.7 +11.9 89 +13 +22 1012.1 980.1 2
13 12.06 З 3 30 км слаб. морось с дождем 9/9 1300 м
[]
+13.8 +12.0 89 +13 +14 1012.7 980.7
14 12.06 СЗ 2 70 км в посл. час дождь {морось} 10/10 480 м
[]
+14.7 +12.7 88 +14 +14 1013.0 981.1
15 12.06 З 2 55 км {дождь, морось} 10/10 450 м
[]
+16.9 +12.6 76 +17 +17 1012.7 981.1 0.6
16 12.06 СЗ 5-6
{6}
55 км 3/3 1050 м
[]
+18.1 +12.5 70 +18 +20 1012.0 980.5
17 12.06 СЗ 3-5
{6}
60 км 8/8 930 м
[]
+18.4 +11.3 63 +19 +19 1012.2 980.7
18 12.06 СЗ 3 60 км {дождь, морось} 3/3 600 м
[]
+18.1 +10.9 63 +18 +19 1012.4 980.9 +12.9 +19.1
19 12.06 СЗ 2-2
{4}
70 км ясно +16.7 +11.3 70 +17 +17 1012.8 981.1
20 12.06 З 1-2
{2}
60 км ясно +15.2 +12.1 82 +16 +16 1013.6 981.8
21 12.06 ЮЗ 1 40 км 4/0
[]
+13.8 +11.8 88 +14 +14 1014.1 982.1
22 12.06 Ю 3 30 км {туман, дымка} 8/8 <50 м
[]
+12.5 +11.4 93 +11 +11 1015.0 982.8
23 12.06 ЮЗ 1 30 км 10/0
[]
+12.0 +11.0 94 +12 +12 1015.1 982.9
00 13.06 Ю 1 17 км 10/0
[]
+12.5 +11.8 95 +12 +12 1015.6 983.4
01 13.06 Ю 1 12 км 10/0
[]
+12.0 +11.3 95 +12 +12 1015.8 983.5
02 13.06 СЗ 1 24 км в посл. час дождь {морось} 10/0 2000 м
[]
+12.2 +11.0 92 +12 +12 1015.5 983.3
03 13.06 СЗ 1 19 км в посл. час дождь {морось} 10/10 1500 м
[]
+12.9 +11.6 92 +13 +13 1015.2 983.1 0.1
04 13.06 С 2 10 км слаб. дождь {морось} 10/10 1500 м
[]
+12.7 +11.6 93 +12 +12 1016.3 984.1
05 13.06 СЗ 1-2
{4}
29 км в посл. час дождь {морось} 10/10 1500 м
[]
+12.8 +11.5 92 +13 +13 1016.4 984.2
06 13.06 Ю 1 14 км {дождь, морось} 10/10 1500 м
[]
+13.5 +12.3 92 +14 +14 1016.1 984.0 +11.7 +18.1 0.9
07 13.06 Ю 2 20 км 8/8 1500 м
[]
+15.7 +13.4 86 +16 +17 1015.5 983.7
08 13.06 Ю 4 50 км 9/0 2000 м
[]
+17.4 +13.2 76 +17 +21 1015.5 983.9
09 13.06 Ю 4 55 км 9/9 1500 м
[]
+19.6 +11.9 61 +21 +22 комфорт 1015.4 984.0
10 13.06 Ю 4 60 км 8/8 1260 м
[]
+20.2 +10.6 54 +22 +24 комфорт 1015.2 983.8
11 13.06 ЮЗ 4 14 км слаб. дождь {морось} 10/10 1440 м
[]
+18.2 +11.8 66 +18 +18 1015.7 984.1
12 13.06 ЮЗ 2 50 км в посл. час дождь {морось} 5/5 1500 м
[]
+21.4 +11.6 54 +23 +32 комфорт 1014.9 983.7 0.2
13 13.06 Ю 4-5
{6}
70 км 4/4 1140 м
[]
+22.6 +13.1 55 +26 +32 жарко 1014.4 983.3
14 13.06 ЮЗ 3-5
{7}
45 км 1/1 1200 м
[]
+23.1 +13.4 54 +26 +36 жарко 1014.1 983.1
15 13.06 ЮЗ 3 65 км 3/3 1320 м
[]
+22.1 +12.1 53 +24 +30 комфорт 1013.9 982.8
16 13.06 ЮЗ 2-3
{4}
65 км 3/0 2000 м
[]
+23.0 +11.8 49 +25 +30 комфорт 1013.9 982.9
17 13.06 З 5 70 км 6/6 1380 м
[]
+22.4 +11.7 51 +25 +25 комфорт 1014.1 983.0
18 13.06 СЗ 3 70 км ясно +22.5 +11.2 49 +25 +25 комфорт 1014.4 983.3 +13.5 +23.9
19 13.06 СЗ 2-2
{4}
70 км ясно +21.1 +10.8 52 +23 +23 комфорт 1015.1 983.8
20 13.06 З 1-2
{2}
70 км ясно +19.4 +11.8 61 +22 +22 комфорт 1015.9 984.4
21 13.06 СЗ 1-2
{4}
70 км ясно +18.4 +11.3 63 +20 +20 1016.4 984.8
22 13.06 ЮВ 1-2
{2}
45 км ясно +15.6 +12.4 81 +16 +16 1017.1 985.2
23 13.06 ЮВ 1-1
{1}
45 км ясно +14.8 +11.9 83 +15 +15 1017.2 985.2
00 14.06 ЮВ 1 35 км ясно +13.7 +11.7 88 +14 +14 1017.2 985.1
01 14.06 Ю 1-1
{2}
30 км ясно +13.2 +11.7 91 +13 +13 1017.3 985.1
02 14.06 Ю 1-1
{2}
19 км ясно +12.5 +11.6 94 +12 +12 1017.5 985.2
03 14.06 штиль 0-1
{2}
21 км ясно +12.1 +11.0 93 +11 +11 1017.4 985.1
04 14.06 В 1-2
{2}
24 км ясно +12.9 +11.6 92 +13 +13 1017.3 985.1
05 14.06 СВ 1-1
{2}
30 км ясно +15.0 +11.4 79 +16 +17 1017.0 985.0
06 14.06 Ю 1 23 км ясно +17.0 +12.7 76 +18 +22 1016.7 985.0 +11.7 +22.4
07 14.06 СЗ 1-2
{2}
29 км ясно +19.3 +13.9 71 +22 +30 комфорт 1016.6 985.1
08 14.06 Ю 1 45 км 9/0
[]
+22.2 +13.5 58 +25 +32 комфорт 1016.8 985.6
09 14.06 Ю 2 65 км 10/0
[]
+24.1 +14.2 54 +27 +33 жарко 1016.4 985.4
10 14.06 ЮЗ 4 50 км 9/0
[]
+25.2 +13.6 49 +27 +34 жарко 1016.1 985.2
11 14.06 Ю 3 50 км 10/0
[]
+25.6 +14.0 49 +28 +35 жарко 1016.1 985.3
12 14.06 З 3 н/о 10/0 2000 м
[]
+25.0 +15.0 54 +28 +35 жарко 1016.2 985.3
13 14.06 З 3-4
{5}
50 км 10/0
[]
+25.6 +14.6 51 +28 +35 жарко 1015.7 984.9
14 14.06 З 2 45 км 10/0
[]
+26.2 +15.2 51 +29 +35 жарко 1015.1 984.4
15 14.06 З 2 45 км 10/0
[]
+25.2 +16.1 57 +29 +33 душно 1014.9 984.1
16 14.06 СЗ 2 45 км 10/0
[]
+24.5 +14.9 55 +27 +30 жарко 1014.1 983.3
17 14.06 С 4-8
{8}
50 км 10/0
[]
+23.7 +13.0 51 +26 +27 жарко 1014.5 983.5
18 14.06 С 2 45 км 9/0
[]
+23.4 +13.8 55 +27 +27 душно 1013.5 982.5 +16.0 +26.6
19 14.06 СВ 2 45 км 10/0
[]
+22.3 +14.9 63 +26 +26 жарко 1013.2 982.2
20 14.06 В 2 40 км 10/0
[]
+21.2 +15.3 69 +24 +24 комфорт 1012.6 981.5
21 14.06 СВ 1 40 км 9/0
[]
+20.3 +14.6 70 +24 +24 комфорт 1012.0 980.8
22 14.06 С 1-3
{3}
45 км 1/0
[]
+19.0 +14.0 73 +21 +21 комфорт 1011.5 980.2
23 14.06 С 2 40 км 9/0
[]
+18.6 +14.5 77 +20 +20 1010.2 978.9
00 15.06 С 2 40 км 10/0
[]
+18.3 +14.2 77 +19 +19 1009.8 978.4
01 15.06 В 1-1
{4}
40 км 10/0
[]
+17.7 +14.2 80 +19 +19 1009.1 977.7
02 15.06 Ю 1 30 км 10/0
[]
+16.9 +14.3 85 +18 +18 1008.8 977.3
03 15.06 В 1 30 км в посл. час дождь 10/0
[]
+16.5 +14.1 86 +17 +17 1008.5 977.0 0.0
04 15.06 Ю 1 30 км 10/0
[]
+16.4 +14.2 87 +17 +17 1008.8 977.3
05 15.06 Ю 2-3
{3}
17 км 5/0
[]
+16.3 +14.7 90 +16 +17 1010.1 978.5
06 15.06 З 6 40 км {дождь} 6/0
[]
+18.4 +14.1 76 +18 +19 1011.0 979.6 +15.8 +23.3 0.0
07 15.06 З 4 45 км 10/0
[]
+19.7 +13.9 69 +22 +24 комфорт 1012.0 980.7
08 15.06 СЗ 8 40 км 8/0
[]
+21.3 +13.9 63 +24 +25 комфорт 1012.5 981.4
09 15.06 З 8 40 км 9/9 870 м
[]
+22.3 +14.0 59 +25 +26 комфорт 1013.5 982.4
10 15.06 СЗ 9 40 км 9/9 960 м
[]
+22.0 +13.7 59 +25 +25 комфорт 1014.4 983.3
11 15.06 СЗ 7 45 км 10/10 900 м
[]
+20.8 +13.9 65 +23 +23 комфорт 1015.4 984.1
12 15.06 СЗ 6 60 км 6/6 1170 м
[]
+22.7 +14.6 60 +26 +29 жарко 1015.2 984.1
13 15.06 З 6 50 км 9/9 1110 м
[]
+22.6 +14.1 59 +26 +27 жарко 1015.3 984.2
14 15.06 З 5 60 км 8/8 1140 м
[]
+23.7 +13.9 54 +26 +27 жарко 1015.2 984.2
15 15.06 СЗ 5 70 км 9/9 1500 м
[]
+22.6 +13.3 56 +26 +26 жарко 1015.3 984.2
16 15.06 СЗ 6 55 км 8/8 1350 м
[]
+23.7 +13.2 52 +26 +26 жарко 1014.8 983.8
17 15.06 СЗ 4 70 км 5/5 1320 м
[]
+23.6 +13.1 52 +26 +27 жарко 1014.6 983.6
18 15.06 СЗ 3 70 км 8/8 1000 м
[]
+23.2 +12.1 50 +26 +26 жарко 1014.6 983.6 +18.4 +24.0
19 15.06 СЗ 2-3
{6}
70 км 3/0
[]
+21.6 +12.8 57 +24 +24 комфорт 1015.0 983.8
20 15.06 С 1-1
{3}
70 км ясно +20.4 +13.4 64 +24 +24 комфорт 1015.6 984.3
21 15.06 С 1-1
{6}
45 км ясно +18.9 +13.5 71 +21 +21 комфорт 1015.8 984.3
22 15.06 С 1-1
{2}
40 км ясно +18.0 +13.7 76 +19 +19 1016.5 984.9
23 15.06 Ю 1 40 км 10/10 1500 м
[]
+17.0 +13.7 81 +18 +18 1017.7 985.9
00 16.06 Ю 2 35 км 10/10 1500 м
[]
+16.8 +13.9 83 +17 +17 1018.0 986.2
01 16.06 З 3 5000 м дождь {морось} 10/10 1470 м
[]
+16.3 +14.2 87 +16 +16 1018.7 986.8
02 16.06 Ю 2-3
{5}
10 км слаб. дождь 5/0 2000 м
[]
+15.7 +14.5 93 +16 +16 1018.7 986.8
03 16.06 ЮЗ 2 13 км слаб. дождь {морось} 9/0 2000 м
[]
+15.3 +14.5 95 +15 +15 1019.2 987.2 3
04 16.06 З 2 20 км слаб. дождь 10/10 1500 м
[]
+15.4 +13.9 91 +15 +15 1019.3 987.3
05 16.06 СЗ 4 20 км в посл. час дождь {морось} 10/0 2000 м
[]
+15.1 +13.6 91 +14 +14 1019.5 987.5
06 16.06 СЗ 4 15 км слаб. морось {дождь} 10/10 200 м
[]
+15.1 +13.7 91 +14 +14 1020.5 988.5 +15.1 +23.4 3
07 16.06 С 3 10 км слаб. дождь {морось} 9/9 240 м
[]
+15.2 +13.7 91 +14 +15 1021.2 989.1
08 16.06 СЗ 2 18 км слаб. дождь {морось} 10/10 210 м
[]
+15.3 +13.7 90 +15 +15 1021.5 989.4
09 16.06 В 1 19 км слаб. дождь {морось} 10/10 300 м
[]
+16.6 +14.2 86 +17 +17 1021.8 989.9 0.7
10 16.06 ЮЗ 1 12 км слаб. дождь {морось} 9/9 400 м
[]
+16.7 +14.4 86 +18 +19 1022.2 990.3
11 16.06 СЗ 1 18 км слаб. дождь 10/10 300 м
[]
+17.2 +14.9 86 +18 +18 1022.4 990.5
12 16.06 В 2 30 км в посл. час дождь {морось} 10/10 450 м
[]
+18.4 +14.0 76 +19 +19 1022.1 990.4 0.8
13 16.06 Ю 1 24 км в посл. час дождь {морось} 10/10 480 м
[]
+18.0 +14.5 80 +19 +19 1022.1 990.3
14 16.06 З 1 1600 м дождь 10/10 870 м
[]
+16.4 +15.2 93 +17 +17 1022.8 990.8
15 16.06 Ю 2 25 км в посл. час дождь {морось} 10/0 2000 м
[]
+17.1 +14.6 85 +17 +22 1022.2 990.3 5
16 16.06 Ю 1-2
{2}
50 км 10/0
[]
+19.0 +13.7 71 +21 +25 комфорт 1021.8 990.1
17 16.06 Ю 3-4
{4}
45 км 10/0
[]
+19.0 +14.7 76 +20 +22 1021.9 990.2
18 16.06 Ю 3 45 км {дождь, морось} 10/0
[]
+17.8 +13.9 78 +18 +18 1022.1 990.3 +15.0 +20.0
19 16.06 Ю 2-2
{3}
40 км 1/0
[]
+16.6 +13.5 82 +17 +17 1022.1 990.2
20 16.06 Ю 2-3
{3}
27 км ясно +15.6 +13.8 89 +15 +15 1022.5 990.4
21 16.06 Ю 1-1
{3}
14 км ясно +14.8 +13.9 94 +15 +15 1023.0 990.8
22 16.06 В 1-2
{2}
19 км ясно +14.9 +13.7 93 +15 +15 1022.8 990.7
23 16.06 СЗ 1-1
{1}
3300 м дымка ясно +13.9 +13.3 96 +14 +14 1022.9 990.6
00 17.06 штиль 0 5000 м дымка ясно +13.4 +12.8 96 +13 +13 1023.1 990.8
01 17.06 СЗ 1-1
{1}
200 м туман {дымка} 8/8 <50 м
[]
+12.7 +12.4 98 +13 +13 1023.3 990.9
02 17.06 штиль 0
{2}
1700 м в посл. час туман {дымка} 9/9 30 м
[]
+12.2 +11.8 97 +12 +12 1023.1 990.6
03 17.06 СВ 1 100 м туман {дымка} 10/10 <50 м
[]
+12.6 +12.2 97 +12 +12 1023.0 990.6
04 17.06 С 1-1
{2}
100 м туман 10/10 <50 м
[]
+12.9 +12.5 97 +13 +13 1023.0 990.6
05 17.06 С 1-1
{3}
100 м туман 10/10 <50 м
[]
+13.0 +13.0 100 +13 +13 1023.1 990.7
06 17.06 В 1 100 м туман {дымка} 10/10 <50 м
[]
+13.0 +12.8 99 +13 +13 1023.2 990.8 +11.8 +17.8
07 17.06 З 1-1
{2}
600 м туман {дымка} 10/10 30 м
[]
+14.3 +12.9 91 +15 +15 1022.8 990.6
08 17.06 В 1-3
{3}
18 км в посл. час туман {дымка} 3/3 210 м
[]
+17.8 +13.7 77 +19 +28 1022.1 990.3
09 17.06 ЮВ 2 30 км {туман, дымка} 3/3 570 м
[]
+20.6 +14.7 69 +24 +34 комфорт 1021.5 990.0
10 17.06 В 4-7
{7}
30 км 3/3 720 м
[]
+22.0 +15.2 65 +26 +33 душно 1020.8 989.5
11 17.06 ЮВ 3-6
{7}
35 км 3/3 900 м
[]
+23.1 +15.4 62 +27 +38 душно 1020.2 989.0
12 17.06 ЮВ 3 50 км {туман, дымка} 5/5 1050 м
[]
+23.6 +14.1 55 +26 +33 жарко 1019.7 988.6
13 17.06 ЮВ 4 55 км 5/5 1320 м
[]
+24.4 +13.8 52 +27 +32 жарко 1019.4 988.4
14 17.06 В 2-4
{6}
60 км 1/1 1470 м
[]
+24.3 +13.4 51 +27 +38 жарко 1018.8 987.8
15 17.06 ЮЗ 1 55 км 1/1 1500 м
[]
+25.6 +14.4 50 +28 +38 жарко 1018.1 987.2
16 17.06 Ю 2-7
{7}
55 км 3/3 1500 м
[]
+25.4 +12.7 45 +27 +31 жарко 1017.5 986.6
17 17.06 В 2-4
{6}
60 км ясно +24.9 +12.3 45 +27 +29 жарко 1017.1 986.2
18 17.06 В 3 55 км ясно +24.3 +12.3 47 +26 +27 жарко 1016.8 985.8 +12.9 +26.1
19 17.06 В 3-3
{5}
60 км ясно +23.3 +12.8 52 +26 +26 жарко 1016.9 985.8
20 17.06 СВ 2-2
{3}
55 км ясно +21.6 +13.2 59 +24 +24 комфорт 1017.3 986.0
21 17.06 С 1 45 км 1/1 1500 м
[]
+20.1 +14.2 69 +23 +23 комфорт 1017.4 986.0
22 17.06 СВ 2 35 км 8/0 2000 м
[]
+19.2 +14.2 73 +21 +21 комфорт 1017.5 986.0
23 17.06 СВ 2-2
{3}
30 км ясно +18.0 +14.1 78 +19 +19 1017.7 986.1
00 18.06 СВ 1 23 км ясно +17.0 +13.9 82 +18 +18 1017.6 985.9
01 18.06 СВ 1-3
{3}
21 км ясно +15.9 +13.8 87 +17 +17 1017.6 985.7
02 18.06 СЗ 1 21 км 5/0
[]
+15.5 +13.3 87 +16 +16 1017.4 985.5
03 18.06 СВ 1 16 км 5/0
[]
+14.7 +13.1 90 +15 +15 1017.4 985.4
04 18.06 С 1 13 км 5/5 1500 м
[]
+14.7 +13.3 91 +15 +15 1017.4 985.4
05 18.06 СВ 1 14 км 9/0 2000 м
[]
+15.2 +13.3 88 +16 +17 1017.3 985.4
06 18.06 СЗ 1 17 км 3/0
[]
+17.5 +13.5 77 +19 +22 1017.2 985.5 +14.4 +24.2
07 18.06 З 1-3
{3}
24 км ясно +20.3 +14.3 68 +24 +32 комфорт 1017.0 985.6
08 18.06 ЮВ 2-3
{3}
35 км ясно +23.1 +15.2 61 +27 +38 душно 1016.5 985.4
09 18.06 Ю 3 35 км ясно +24.3 +15.5 58 +27 +39 жарко 1016.0 985.1
10 18.06 ЮВ 4-6
{6}
50 км ясно +25.4 +15.2 53 +28 +39 жарко 1015.4 984.6
11 18.06 ЮВ 5-7
{7}
35 км 3/3 1440 м
[]
+26.5 +14.6 48 +29 +36 жарко 1014.8 984.1
12 18.06 Ю 4 40 км 3/3 1500 м
[]
+27.6 +12.9 40 +29 +37 жарко 1014.3 983.7
13 18.06 Ю 3-6
{8}
40 км 1/1 1500 м
[]
+26.7 +13.2 43 +28 +40 жарко 1014.0 983.4
14 18.06 Ю 3-5
{6}
50 км ясно +27.2 +13.3 42 +29 +40 жарко 1013.5 982.9
15 18.06 ЮВ 2 50 км 3/0
[]
+27.9 +13.1 40 +30 +37 жарко 1012.9 982.4
16 18.06 З 3 40 км 6/0
[]
+27.9 +11.9 37 +29 +32 жарко 1012.5 982.0
17 18.06 З 3-5
{6}
45 км 9/0
[]
+27.2 +13.9 44 +29 +31 жарко 1012.4 981.9
18 18.06 ЮЗ 1 40 км 10/0
[]
+26.2 +13.8 46 +28 +29 жарко 1012.4 981.8 +17.6 +28.5
19 18.06 штиль 0-1
{2}
35 км 10/0
[]
+25.5 +15.3 53 +28 +28 жарко 1012.2 981.5
20 18.06 штиль 0-1
{2}
35 км 10/0
[]
+24.0 +15.4 59 +27 +27 жарко 1012.3 981.5
21 18.06 СВ 1 30 км 10/0
[]
+22.4 +16.1 68 +27 +27 душно 1012.4 981.4
22 18.06 ЮЗ 1 26 км 9/0
[]
+20.3 +16.3 78 +24 +24 комфорт 1012.8 981.6
23 18.06 штиль 0 28 км 10/10 1500 м
[]
+20.1 +15.8 76 +22 +22 комфорт 1012.6 981.4
00 19.06 штиль 0 22 км 9/0
[]
+19.3 +15.9 81 +21 +21 комфорт 1012.4 981.1
01 19.06 С 2 20 км 10/0
[]
+18.5 +15.5 83 +20 +20 1011.9 980.5
02 19.06 17 км 9/0
[]
+17.2 +15.2 88 1012.0 980.5
03 19.06 Ю 1 11 км 3/0
[]
+16.8 +15.5 92 +18 +18 1011.8 980.2
05 19.06 Ю 1-2
{2}
8000 м 6/0
[]
+16.9 +15.0 89 +18 +19 1012.2 980.6
06 19.06 Ю 1 13 км 10/0
[]
+18.4 +15.3 82 +20 +22 1011.8 980.4 +15.8 +26.3
07 19.06 ЮВ 2 23 км 10/0
[]
+21.6 +16.1 71 +25 +29 комфорт 1011.0 980.0
08 19.06 Ю 2-4
{4}
28 км 8/0
[]
+24.2 +15.9 60 +27 +34 жарко 1010.2 979.5

 

Местоположение метеостанции Вюрцбург (Германия): широта 49.77 долгота 9.97 высота над уровнем моря 259 м.

В архиве по умолчанию представлена погода в Вюрцбурге за последнюю неделю. Архивные данные за месяц целиком и за предыдущие месяцы, начиная с января 2011 года, Вы можете получить, выбрав интересующий диапазон дат из раскрывающегося списка и нажав кнопку "Ввод!".


*Определитесь, кто Вы:
робот инопланетянин человек

Внимание! Время в таблицах - всемирное. Для получения местного времени необходимо прибавить поправку, которая равна 1 ч.

Смотрите также архив погоды в соседних городах и на ближайших метеорологических станциях:

Погода в Нидерштеттене (Германия) (43 км)
Погода в Нойхюттене (Германия) (48 км)
Погода в Бад-Киссингене (Германия) (48 км)
Погода в Михельштадте (Германия) (63 км)
Погода в Бамберге (Германия) (69 км)
Погода в Эрингене (Германия) (69 км)
Погода в Фойхтванген-Хайльбронне (Германия) (73 км)
Погода на Вассеркуппе (Германия) (81 км)
Погода в Нюрнберге (Германия) (85 км)
Погода в Кобурге (Германия) (92 км)

Пояснения к столбцам:

Ветер - указаны скорость ветра в м/с - средняя за 10 мин, порывы в срок и между сроками (в фигурных скобках) и направление, откуда дует ветер: С - северный, СВ - северо-восточный, В - восточный, ЮВ - юго-восточный, Ю - южный, ЮЗ - юго-западный, З - западный, СЗ - северо-западный.
Видимость - горизонтальная дальность видимости в метрах или километрах. При видимости от 1 до 10 км при отсутствии осадков обычно наблюдается дымка, при ухудшении видимости до 1 км и менее - туман. В сухую погоду видимость может ухудшаться дымом, пылью или мглою.
Явления - указаны атмосферные явления, наблюдавшиеся в срок или в последний час перед сроком; фигурными скобками обозначены явления, наблюдавшиеся между сроками (за 1-3 часа до срока); квадратными скобками обозначены град или гололедные отложения с указанием их диаметра в мм.
Облачность - указаны через наклонную черту общая и нижняя облачность в баллах и высота нижней границы облаков в метрах; квадратными скобками обозначены формы облаков: Ci - перистые, Cs - перисто-слоистые, Cc - перисто-кучевые, Ac - высококучевые, As - высокослоистые, Sc - слоисто-кучевые, Ns - слоисто-дождевые, Cu - кучевые, Cb - кучево-дождевые. Подробнее классификацию облаков см. в Атласе облаков (PDF).
T - Температура воздуха - температура, измеренная на высоте 2 м над землей.
Td - Температура точки росы - температура, при понижении до которой содержащийся в воздухе водяной пар достигнет насыщения.
f - Относительная влажность воздуха - влажноcть воздуха, измеренная на высоте 2 м над землей.
Te - Эффективная температура - температура, которую ощущает одетый по сезону человек в тени. Характеристика душности погоды. При расчете учитывается влияние влажности воздуха и скорости ветра на теплоощущения человека.
Tes - Эффективная температура на солнце - температура, которую ощущает человек, с поправкой на солнечный нагрев. Характеристика знойности погоды. Зависит от высоты солнца над горизонтом, облачности и скорости ветра. Ночью, в пасмурную погоду, а также при ветре 12 м/с и более поправка равна нулю.
P - Атмосферное давление - приведенное к уровню моря атмосферное давление.
Po - Атмосферное давление - измеренное на уровне метеостанции атмосферное давление.
Tmin - Минимальная температура - минимум температуры воздуха на высоте 2 м над землей.
Tmax - Максимальная температура - максимум температуры воздуха на высоте 2 м над землей.
R - Количество осадков - Количество выпавших осадков за период времени, мм. При наведении курсора мыши на число - период времени, за который выпало указанное количество осадков.
R24 - Количество осадков - Количество выпавших осадков за 24 часа, мм.
S - Снежный покров - Высота снежного покрова, см. При наведении курсора мыши на число - состояние снежного покрова и степень покрытия местности в баллах.